Regional Weather Roundup
Issued by NWS Midland/Odessa, TX

Skip options and go directly to product.
Home | Oldest Version | Previous Version | Current Version | All | Text Only | Save Text | Print | Product List | Glossary Off

Skip product version selection by date and time.   

585
ASUS44 KMAF 291610
RWRMAF
MIDLAND AREA WEATHER ROUNDUP
NATIONAL WEATHER SERVICE MIDLAND TX
1100 AM CDT FRI AUG 29 2014

...IN SOUTHWEST TEXAS AND SOUTHEAST NEW MEXICO...

CITY           SKY/WX    TMP DP  RH WIND       PRES   REMARKS
ALPINE         SUNNY     79  50  36 N3        30.14R
ANDREWS        CLOUDY    75  65  71 E3        30.03R
ARTESIA        NOT AVBL
BIG SPRING     PTSUNNY   79  67  66 S3        30.02R
CARLSBAD       SUNNY     79  54  41 NW21G28   30.04R
DRYDEN           N/A     84  69  60 E8        29.95R
FORT STOCKTON  SUNNY     82  62  50 W10       29.99S
GUAD PASS      SUNNY     77  44  30 SW9       30.17R
HOBBS          PTSUNNY   75  64  69 NE9       30.06S
MARFA          SUNNY     81  48  32 N12G17    30.12R
MIDLAND AIRPK  CLOUDY    80  66  63 CALM      30.01R
MIDLAND INTL   PTSUNNY   81  67  62 S6        29.99R
ODESSA         PTSUNNY   80  66  62 CALM      30.01R
PECOS          SUNNY     79  56  45 NW14      29.98S
PRESIDIO       FAIR      85  59  40 CALM      29.97R
SEMINOLE       PTSUNNY   75  63  65 NE7       30.05R
SNYDER         CLOUDY    74  69  83 E3        30.02R
WINK           SUNNY     82  65  56 CALM      29.97R
$$
...OTHER STATIONS IN TEXAS...

CITY           SKY/WX    TMP DP  RH WIND       PRES   REMARKS
ABILENE        CLOUDY    77  69  76 S7        29.99R
AMARILLO       SUNNY     77  49  37 N9        30.05R
AUSTIN         PTSUNNY   85  74  69 VRB5      29.90F
BROWNSVILLE    LGT RAIN  77  75  94 NE8       29.84F
CORPUS CHRISTI LGT RAIN  78  75  90 SE12      29.87R
DALLAS FTW     PTSUNNY   78  69  73 S6        29.94R
DEL RIO        MOSUNNY   86  70  58 SE9       29.89F
EL PASO        MOSUNNY   81  47  30 N16       30.05R
HOUSTON INT    PTSUNNY   84  73  70 E14       29.90S
LUBBOCK        PTSUNNY   74  65  73 E5        30.05S
SAN ANGELO     SUNNY     84  67  56 S13       29.95R
SAN ANTONIO    PTSUNNY   85  72  65 E9        29.91F
WACO           SUNNY     80  72  76 NE6       29.95R
WICHITA FALLS  NOT AVBL
$$
...OTHER LOCATIONS IN NEW MEXICO...

CITY           SKY/WX    TMP DP  RH WIND       PRES   REMARKS
ALAMAGORDO     SUNNY     75  48  38 S6        30.08R
ALBUQUERQUE    MOSUNNY   71  45  39 NW5       30.19S
CANNON AFB     SUNNY     76  51  41 E7        30.11R
CLOVIS           N/A     75  50  41 E8        30.13S
HOLLOMAN AFB   SUNNY     79  49  34 W2        30.06R
ROSWELL        SUNNY     76  55  48 N13       30.08R
RUIDOSO        SUNNY     66  48  52 SE7       30.29R
SANTA FE       SUNNY     68  42  38 N5        30.25R
TRUTH OR CONSE SUNNY     77  47  34 N13       30.13S
TUCUMCARI      SUNNY     76  49  38 VRB3      30.09S
$$

USA.gov is the U.S. government's official web portal to all federal, state and local government web resources and services.